Temp
-9 -9 -9 -9 -9 -9 -9 -9 -9 -9 -9 -9 -9 -9 -9 -9 -9 -9 -10 -10 -10 -10 -10 -10 -10 -10 -11 -10 -10 -10 -10 -10 -10 -10 -11 -11 -11 -11 -10 -10 -10 -11 -11 -11 -11
-10 -9 -9 -10 -9 -9 -9 -9 -9 -10 -10 -10 -10 -9 -10 -10 -10 -10 -11 -11 -11 -11 -11 -11 -11 -11 -11 -11 -10 -10 -11 -11 -11 -11 -11 -11 -11 -11 -11 -11 -11 -11 -11 -11 -11
-10 -10 -10 -10 -10 -10 -10 -10 -10 -10 -10 -10 -10 -10 -10 -10 -11 -11 -11 -11 -11 -11 -11 -11 -11 -11 -11 -11 -11 -10 -11 -11 -11 -11 -11 -11 -11 -11 -11 -11 -11 -11 -11 -11 -11
-10 -10 -10 -10 -10 -10 -10 -10 -10 -10 -10 -10 -10 -10 -10 -11 -12 -11 -12 -11 -11 -11 -11 -11 -11 -11 -11 -11 -11 -11 -11 -11 -11 -11 -11 -11 -10 -11 -11 -11 -11 -11 -11 -11 -11
-11 -11 -11 -11 -11 -11 -11 -11 -10 -11 -11 -11 -11 -11 -11 -12 -12 -11 -12 -12 -12 -12 -11 -11 -11 -11 -11 -11 -11 -11 -11 -11 -11 -11 -11 -11 -10 -10 -11 -11 -11 -10 -10 -10 -10
-12 -12 -12 -11 -11 -11 -11 -11 -11 -11 -11 -11 -11 -12 -12 -12 -12 -12 -12 -12 -12 -12 -12 -12 -12 -12 -12 -12 -12 -12 -11 -11 -11 -11 -11 -11 -10 -10 -11 -11 -11 -11 -11 -11 -10
-13 -12 -12 -12 -12 -12 -12 -12 -12 -12 -12 -12 -12 -12 -12 -13 -13 -12 -12 -13 -13 -12 -12 -12 -12 -12 -12 -12 -12 -12 -11 -11 -11 -12 -11 -11 -9 -11 -11 -10 -10 -10 -11 -10 -11
-13 -13 -13 -13 -13 -14 -14 -14 -14 -14 -13 -13 -13 -13 -13 -13 -13 -13 -13 -13 -13 -13 -13 -13 -13 -12 -12 -12 -12 -12 -12 -11 -11 -12 -12 -11 -10 -11 -11 -11 -11 -11 -11 -11 -11
-15 -15 -15 -15 -14 -15 -15 -15 -15 -15 -14 -14 -14 -13 -13 -13 -13 -13 -13 -13 -13 -14 -13 -13 -13 -12 -12 -12 -12 -12 -12 -11 -12 -12 -12 -12 -10 -11 -11 -11 -11 -11 -11 -11 -11
-15 -15 -16 -16 -16 -16 -16 -16 -15 -15 -15 -15 -14 -14 -13 -14 -14 -14 -14 -14 -14 -13 -13 -13 -13 -13 -13 -13 -13 -12 -12 -12 -12 -12 -12 -12 -11 -11 -11 -12 -11 -11 -11 -12 -12
-16 -16 -17 -16 -16 -16 -15 -16 -15 -15 -15 -15 -14 -14 -15 -15 -14 -14 -14 -14 -14 -14 -14 -14 -13 -13 -14 -13 -13 -13 -12 -12 -12 -12 -12 -13 -11 -11 -11 -12 -13 -14 -14 -16 -16
-17 -17 -17 -17 -17 -16 -16 -17 -16 -15 -14 -15 -15 -14 -15 -15 -14 -15 -14 -14 -14 -14 -14 -14 -13 -14 -14 -14 -13 -13 -13 -13 -12 -13 -13 -12 -11 -11 -11 -13 -15 -17 -18 -18 -18
-18 -18 -17 -17 -17 -17 -17 -17 -17 -16 -14 -14 -15 -15 -14 -15 -15 -15 -15 -14 -14 -13 -14 -14 -14 -14 -14 -14 -13 -13 -14 -14 -13 -13 -13 -14 -12 -13 -12 -15 -17 -18 -18 -17 -18
-18 -18 -18 -18 -17 -18 -18 -18 -18 -17 -15 -14 -14 -14 -15 -15 -15 -15 -15 -15 -15 -14 -14 -13 -15 -15 -14 -14 -15 -13 -16 -15 -14 -14 -14 -15 -16 -14 -15 -18 -19 -19 -19 -19 -19
-19 -19 -19 -18 -18 -18 -19 -18 -18 -18 -16 -15 -14 -14 -15 -16 -16 -16 -16 -15 -16 -15 -15 -14 -15 -15 -14 -15 -17 -14 -17 -17 -17 -18 -19 -15 -20 -17 -18 -18 -19 -18 -19 -19 -19
-19 -19 -19 -19 -18 -19 -19 -19 -19 -19 -16 -16 -15 -15 -16 -16 -16 -16 -16 -16 -16 -16 -15 -15 -16 -15 -15 -15 -17 -17 -18 -18 -19 -19 -19 -19 -20 -18 -18 -18 -19 -19 -18 -19 -19
-20 -20 -19 -19 -20 -20 -20 -21 -20 -18 -16 -16 -17 -17 -16 -16 -16 -17 -17 -16 -16 -16 -16 -16 -16 -17 -16 -16 -19 -19 -19 -19 -20 -19 -19 -19 -20 -19 -19 -19 -19 -19 -19 -19 -18
-21 -21 -21 -20 -21 -21 -21 -22 -21 -17 -17 -18 -19 -20 -18 -17 -17 -17 -17 -17 -17 -17 -17 -17 -16 -18 -19 -19 -19 -19 -19 -20 -21 -20 -20 -20 -20 -20 -19 -20 -20 -19 -19 -19 -19
-21 -22 -22 -21 -21 -21 -22 -21 -19 -18 -18 -19 -20 -20 -19 -18 -18 -18 -18 -17 -17 -20 -19 -19 -18 -18 -19 -20 -20 -20 -20 -21 -20 -20 -20 -20 -20 -20 -19 -20 -20 -19 -19 -19 -19
-22 -22 -21 -22 -22 -22 -23 -22 -19 -19 -20 -20 -20 -20 -19 -19 -20 -19 -19 -19 -19 -19 -20 -19 -19 -20 -20 -20 -20 -21 -21 -20 -21 -21 -21 -20 -20 -20 -20 -21 -20 -20 -20 -19 -19
-23 -23 -22 -23 -23 -23 -23 -22 -20 -20 -21 -21 -20 -20 -19 -19 -20 -20 -19 -20 -20 -20 -20 -21 -21 -20 -21 -20 -21 -20 -20 -21 -21 -21 -21 -21 -21 -20 -20 -21 -21 -19 -20 -20 -20
-24 -23 -23 -24 -24 -24 -23 -22 -21 -21 -21 -21 -21 -21 -20 -20 -20 -21 -20 -20 -20 -20 -21 -21 -21 -21 -21 -21 -20 -21 -21 -21 -21 -21 -22 -22 -21 -21 -21 -21 -21 -21 -20 -21 -21
-24 -24 -24 -24 -25 -24 -24 -23 -23 -22 -21 -22 -22 -21 -22 -21 -22 -21 -21 -21 -21 -21 -21 -21 -21 -21 -21 -21 -20 -21 -21 -21 -22 -22 -22 -22 -21 -21 -21 -21 -21 -21 -22 -21 -21
-25 -25 -24 -24 -25 -24 -24 -23 -23 -23 -22 -22 -22 -22 -22 -22 -22 -21 -21 -21 -21 -21 -21 -22 -22 -21 -21 -21 -21 -21 -21 -22 -22 -22 -22 -22 -22 -22 -22 -22 -21 -21 -21 -22 -21
-26 -25 -25 -25 -24 -24 -24 -24 -24 -23 -23 -22 -22 -22 -22 -22 -22 -22 -22 -21 -21 -21 -21 -22 -21 -21 -21 -21 -21 -21 -22 -23 -23 -23 -23 -23 -23 -23 -23 -23 -22 -22 -22 -22 -21
-27 -26 -26 -25 -25 -26 -25 -25 -24 -23 -24 -23 -23 -23 -23 -23 -22 -22 -22 -22 -21 -22 -21 -21 -21 -21 -21 -21 -21 -21 -22 -23 -23 -23 -23 -23 -23 -23 -23 -23 -23 -23 -23 -22 -22
-28 -27 -28 -27 -27 -27 -26 -25 -24 -24 -24 -23 -23 -24 -23 -23 -23 -22 -22 -22 -22 -22 -22 -22 -21 -21 -21 -21 -21 -21 -22 -23 -23 -23 -23 -23 -23 -23 -23 -23 -22 -22 -22 -22 -22
Height
5812 5812 5815 5816 5816 5818 5821 5821 5823 5822 5823 5823 5824 5825 5825 5824 5821 5822 5821 5820 5819 5819 5819 5817 5820 5818 5818 5819 5820 5820 5823 5823 5822 5822 5825 5821 5821 5820 5819 5820 5820 5822 5822 5816 5814
5802 5803 5806 5808 5808 5809 5811 5813 5814 5814 5815 5815 5816 5815 5819 5818 5815 5816 5816 5815 5814 5815 5815 5814 5815 5815 5814 5815 5815 5815 5819 5818 5818 5817 5819 5819 5818 5818 5815 5811 5814 5816 5813 5812 5807
5791 5793 5794 5798 5800 5799 5800 5803 5804 5806 5806 5807 5808 5807 5809 5810 5811 5809 5810 5809 5810 5811 5810 5810 5810 5810 5810 5811 5810 5810 5813 5811 5813 5811 5811 5814 5815 5812 5812 5809 5810 5808 5807 5805 5806
5781 5782 5784 5786 5789 5790 5792 5793 5796 5796 5797 5799 5799 5799 5800 5801 5806 5801 5805 5803 5803 5804 5805 5804 5805 5804 5805 5806 5804 5804 5805 5804 5806 5805 5805 5805 5806 5808 5803 5806 5806 5801 5797 5797 5796
5770 5772 5773 5775 5778 5780 5782 5784 5786 5787 5788 5790 5790 5791 5794 5795 5794 5796 5797 5798 5796 5797 5797 5797 5797 5797 5798 5798 5798 5797 5797 5795 5795 5795 5795 5798 5799 5794 5795 5798 5794 5793 5792 5790 5789
5757 5760 5762 5764 5767 5769 5771 5773 5775 5777 5778 5780 5782 5783 5787 5789 5784 5787 5789 5791 5790 5789 5790 5790 5789 5788 5789 5790 5789 5790 5788 5787 5786 5784 5783 5785 5786 5784 5790 5784 5784 5784 5783 5782 5779
5746 5747 5749 5752 5755 5758 5760 5761 5764 5766 5769 5771 5772 5774 5779 5779 5778 5777 5781 5783 5782 5781 5782 5781 5781 5781 5779 5779 5777 5777 5778 5780 5779 5774 5770 5773 5776 5776 5774 5773 5774 5773 5772 5770 5769
5732 5735 5737 5740 5743 5745 5748 5750 5753 5755 5758 5761 5762 5764 5769 5768 5768 5770 5770 5772 5773 5773 5773 5771 5771 5771 5770 5768 5769 5768 5770 5768 5766 5761 5759 5763 5771 5764 5764 5762 5760 5759 5758 5755 5753
5719 5722 5725 5729 5731 5734 5736 5739 5741 5744 5746 5750 5752 5753 5755 5757 5760 5760 5759 5761 5762 5762 5763 5762 5760 5759 5758 5757 5757 5758 5756 5756 5752 5748 5746 5748 5757 5753 5750 5747 5747 5745 5742 5737 5734
5706 5709 5713 5717 5719 5722 5726 5727 5730 5732 5735 5737 5741 5745 5743 5746 5747 5747 5749 5750 5749 5749 5750 5751 5748 5748 5749 5744 5745 5743 5742 5745 5740 5737 5734 5731 5740 5742 5735 5729 5730 5728 5725 5720 5714
5695 5698 5702 5705 5709 5711 5714 5716 5719 5721 5725 5728 5730 5733 5734 5733 5730 5733 5737 5736 5738 5737 5737 5735 5735 5736 5735 5730 5731 5730 5729 5729 5730 5722 5720 5716 5723 5726 5723 5716 5713 5710 5708 5702 5698
5683 5687 5690 5694 5697 5700 5702 5702 5705 5708 5713 5717 5720 5720 5722 5718 5720 5720 5719 5722 5727 5727 5724 5724 5721 5722 5722 5720 5719 5717 5715 5716 5721 5710 5700 5702 5710 5707 5710 5702 5697 5696 5694 5687 5683
5670 5673 5677 5681 5684 5687 5690 5690 5691 5695 5699 5708 5709 5709 5707 5709 5710 5713 5708 5707 5707 5710 5713 5709 5709 5711 5711 5707 5705 5707 5699 5700 5698 5696 5693 5686 5691 5686 5696 5683 5680 5678 5676 5670 5666
5655 5659 5663 5667 5671 5676 5676 5677 5679 5683 5687 5695 5691 5696 5698 5698 5698 5699 5698 5699 5698 5698 5696 5694 5700 5698 5698 5693 5690 5693 5683 5681 5680 5676 5676 5676 5660 5675 5678 5670 5666 5662 5661 5658 5655
5640 5645 5651 5653 5658 5663 5662 5663 5668 5673 5677 5683 5680 5680 5683 5687 5688 5688 5687 5687 5687 5688 5689 5688 5683 5683 5685 5685 5673 5682 5669 5668 5667 5665 5660 5672 5651 5662 5658 5657 5651 5651 5649 5646 5646
5624 5630 5637 5639 5645 5648 5646 5649 5654 5662 5665 5670 5667 5667 5671 5673 5675 5676 5676 5676 5676 5678 5679 5681 5673 5671 5671 5670 5663 5662 5661 5658 5657 5656 5652 5657 5647 5656 5650 5644 5641 5639 5637 5635 5637
5608 5613 5622 5626 5630 5631 5631 5635 5640 5648 5658 5662 5657 5653 5658 5663 5661 5662 5661 5664 5663 5664 5667 5667 5665 5660 5659 5659 5655 5654 5653 5649 5648 5647 5647 5646 5642 5640 5637 5633 5631 5629 5627 5626 5626
5593 5601 5606 5612 5612 5615 5616 5620 5624 5643 5646 5649 5645 5643 5650 5651 5650 5649 5650 5652 5654 5653 5653 5651 5655 5651 5650 5649 5649 5647 5646 5644 5639 5640 5641 5638 5636 5634 5629 5625 5623 5620 5619 5621 5618
5578 5585 5593 5597 5597 5599 5599 5599 5619 5632 5634 5635 5636 5633 5642 5641 5638 5639 5638 5640 5643 5642 5643 5643 5644 5642 5643 5642 5641 5640 5638 5636 5632 5632 5631 5631 5631 5627 5623 5622 5620 5616 5614 5617 5619
5562 5569 5581 5578 5581 5580 5578 5587 5609 5616 5619 5619 5622 5625 5632 5634 5630 5629 5631 5630 5632 5633 5632 5636 5634 5635 5635 5635 5635 5632 5631 5629 5627 5624 5622 5621 5621 5619 5616 5616 5615 5611 5611 5608 5606
5546 5553 5564 5562 5562 5561 5561 5580 5598 5603 5605 5607 5611 5611 5619 5621 5619 5620 5623 5623 5625 5625 5625 5624 5626 5630 5628 5628 5627 5625 5623 5621 5619 5616 5614 5614 5613 5611 5608 5606 5606 5606 5603 5599 5599
5528 5538 5547 5546 5545 5545 5553 5576 5586 5589 5591 5593 5596 5600 5605 5607 5608 5609 5611 5613 5618 5617 5618 5619 5618 5619 5620 5618 5618 5617 5615 5613 5609 5609 5607 5604 5603 5604 5601 5597 5593 5595 5593 5591 5592
5510 5522 5530 5531 5527 5537 5548 5560 5567 5575 5577 5580 5584 5590 5594 5596 5595 5596 5599 5604 5607 5608 5610 5610 5610 5610 5609 5610 5609 5607 5606 5604 5599 5597 5596 5596 5596 5597 5592 5588 5584 5580 5581 5581 5580
5492 5500 5511 5513 5515 5529 5537 5545 5551 5562 5565 5569 5573 5578 5581 5584 5587 5587 5592 5594 5597 5599 5601 5600 5601 5600 5600 5600 5599 5597 5596 5593 5590 5587 5588 5586 5589 5588 5582 5576 5575 5574 5571 5571 5571
5471 5481 5494 5496 5508 5518 5524 5533 5540 5548 5554 5557 5561 5567 5571 5573 5577 5579 5582 5585 5588 5588 5591 5590 5590 5591 5592 5591 5589 5585 5583 5582 5580 5580 5578 5581 5577 5576 5576 5572 5568 5567 5566 5566 5566
5455 5470 5478 5487 5498 5500 5507 5517 5529 5540 5539 5546 5550 5557 5560 5563 5567 5571 5574 5576 5578 5581 5581 5582 5583 5583 5583 5583 5579 5573 5571 5572 5572 5571 5568 5567 5566 5568 5566 5563 5561 5560 5559 5558 5558
5442 5456 5464 5472 5482 5487 5497 5512 5520 5523 5528 5537 5540 5544 5548 5556 5557 5561 5564 5566 5569 5572 5573 5574 5575 5574 5572 5571 5567 5562 5563 5565 5564 5562 5561 5559 5560 5557 5556 5554 5551 5549 5549 5549 5548
Wind_Speed
49 48 48 48 45 45 47 44 44 42 40 40 39 37 36 38 39 38 31 28 28 24 21 19 21 17 17 19 20 19 16 15 18 22 22 30 33 36 37 37 39 37 39 41 42
53 50 49 50 49 47 47 46 46 44 43 41 42 39 41 36 36 37 32 26 26 23 19 17 17 13 13 14 16 17 11 11 16 18 18 22 29 31 35 39 36 35 36 39 43
54 53 52 51 50 49 48 48 46 46 45 44 44 42 42 38 33 35 32 29 26 25 22 21 23 20 19 20 23 24 20 24 21 24 24 20 20 24 27 32 32 35 35 38 40
56 56 54 52 53 49 51 49 49 47 47 46 45 43 43 37 31 36 30 33 28 27 29 27 27 27 26 27 29 31 30 32 30 32 32 32 31 27 31 25 27 35 35 37 39
56 55 55 55 53 52 51 50 50 49 49 48 45 42 41 34 34 36 33 32 31 30 35 34 35 37 33 32 34 36 36 39 38 36 36 37 38 41 36 28 35 37 38 38 40
57 57 56 55 55 54 52 52 52 51 48 48 44 38 37 32 36 36 36 34 36 35 40 40 39 40 41 39 39 39 43 43 42 42 44 45 46 47 38 42 40 40 43 45 47
59 57 57 56 55 56 53 49 49 47 44 44 42 40 36 36 37 38 38 38 38 39 38 45 44 43 46 46 47 48 49 46 46 45 49 50 50 46 47 49 50 48 46 47 49
61 60 61 58 56 52 52 53 51 48 49 52 44 46 40 41 44 44 46 45 44 45 46 48 50 53 53 53 52 54 52 52 50 48 49 51 49 48 48 51 54 55 54 54 55
54 60 64 60 59 52 50 47 49 49 47 47 48 48 44 46 45 47 44 47 47 48 48 50 54 58 61 59 59 58 57 55 52 50 50 50 49 50 53 58 59 62 64 67 70
51 49 49 50 44 45 49 53 54 49 50 50 50 45 45 46 47 48 45 47 51 53 56 55 54 55 55 57 63 61 61 56 52 53 54 57 52 53 59 63 66 69 71 72 73
53 48 49 49 53 55 55 58 57 54 51 52 50 48 48 49 53 52 50 53 48 46 51 55 52 48 48 49 50 52 54 53 51 58 60 63 61 60 61 63 63 65 64 60 62
57 55 55 55 54 55 55 53 56 55 51 49 51 50 52 55 53 52 49 45 44 44 45 43 44 48 48 49 50 53 55 56 55 62 66 67 66 66 65 66 61 40 51 51 52
64 61 61 60 57 57 55 59 61 60 56 49 48 50 51 50 50 48 52 50 49 46 42 42 44 44 46 50 53 54 59 59 63 66 66 67 69 69 66 59 52 35 43 62 60
61 60 60 60 60 57 56 57 58 57 56 51 53 48 48 48 48 44 43 43 47 45 43 46 39 43 47 52 51 54 52 59 63 63 65 62 63 64 55 41 39 40 42 46 57
62 61 60 59 57 54 55 55 54 51 51 50 53 53 46 40 39 38 39 40 40 42 43 43 45 49 50 48 50 54 49 50 51 46 41 52 47 46 40 39 41 39 38 46 51
64 64 61 61 58 58 57 57 55 53 53 51 54 52 49 43 42 41 43 42 40 41 42 43 47 50 49 49 45 46 43 41 39 37 39 33 42 34 39 39 36 40 42 39 39
61 59 58 59 57 58 58 55 54 56 52 50 52 55 52 46 44 42 43 41 43 42 40 41 41 43 46 45 35 31 31 35 35 36 36 38 39 39 32 35 35 36 39 38 38
62 59 56 54 55 55 56 55 56 51 48 47 50 49 46 45 47 46 44 43 40 40 41 42 40 36 34 30 29 29 28 28 33 35 33 34 32 29 29 29 31 38 33 31 49
63 61 58 58 57 58 59 61 54 46 45 44 44 48 43 45 48 46 47 45 42 34 37 35 35 33 26 23 24 26 28 32 37 38 37 34 31 32 35 30 24 18 26 22 25
64 63 59 59 58 59 60 61 53 49 48 49 48 47 43 42 47 48 45 46 44 38 36 31 31 21 21 21 19 23 27 30 35 37 41 38 35 32 34 29 30 30 26 33 28
63 62 59 59 59 61 64 61 53 50 50 50 46 47 44 44 44 44 45 43 41 36 32 33 29 24 22 27 28 30 34 35 34 38 40 40 38 37 37 36 33 37 39 40 36
61 59 57 58 60 60 59 55 52 49 46 48 49 48 45 41 42 40 41 39 32 32 35 38 37 27 29 31 32 33 34 38 39 39 40 39 40 36 34 38 40 35 41 45 42
69 66 63 64 64 61 57 54 50 47 49 47 46 43 39 40 38 41 39 36 33 32 31 24 29 32 36 34 35 37 39 42 37 43 43 39 39 35 38 37 39 42 42 43 44
72 71 69 70 69 65 59 55 51 46 49 49 43 40 39 37 37 38 36 36 35 34 34 34 33 34 38 41 44 45 44 41 38 42 36 40 36 35 38 40 41 40 44 41 41
73 71 69 71 68 65 62 56 51 47 48 48 48 43 39 38 36 38 38 37 34 35 31 29 30 33 35 37 40 46 47 34 39 36 40 35 38 36 38 43 43 42 39 39 40
70 67 66 65 61 58 58 53 49 42 47 47 45 39 40 39 39 36 37 39 36 34 32 29 33 31 33 37 43 49 41 32 30 29 35 38 38 36 41 39 38 38 38 36 35
62 58 53 51 48 51 49 51 47 47 48 44 44 42 40 37 39 37 36 36 36 38 33 32 34 37 40 40 42 44 35 28 29 32 34 36 37 38 37 37 38 39 40 41 42
Wind_Direction
262 261 261 261 261 263 265 266 266 267 271 271 273 278 281 285 285 284 277 275 271 266 258 261 269 263 263 266 270 273 279 273 263 252 233 248 257 264 267 273 278 285 285 282 276
263 263 264 265 265 265 266 268 269 270 270 272 273 278 283 283 280 280 272 264 265 263 258 251 247 256 257 256 262 267 276 277 277 279 267 254 256 257 266 270 272 270 271 271 274
265 264 265 264 266 267 268 269 268 271 272 272 274 276 281 281 272 268 267 261 255 254 249 246 251 252 255 267 268 270 279 274 280 277 277 277 278 270 267 265 273 276 275 274 273
266 267 267 267 268 266 268 268 269 269 270 270 273 275 278 276 265 259 261 261 256 251 252 247 258 261 266 269 273 275 280 279 283 285 286 284 277 274 273 276 269 270 272 273 276
264 264 265 267 267 267 267 268 269 272 272 273 271 273 273 268 261 265 255 255 253 251 255 258 264 267 272 277 279 282 281 282 287 290 287 281 279 275 273 271 266 266 270 272 275
261 263 264 264 267 266 266 269 272 272 271 270 272 270 269 260 261 262 264 257 256 255 260 265 267 270 274 279 281 279 283 286 290 295 291 283 279 277 281 271 266 266 267 269 272
263 263 262 263 261 265 265 267 270 268 267 266 267 265 260 260 258 262 264 265 263 264 266 266 270 273 273 276 279 281 277 281 288 287 282 281 276 284 278 279 281 278 271 272 273
260 261 261 258 259 260 262 264 265 263 267 270 262 263 262 258 264 268 271 268 268 270 272 271 274 274 276 274 278 281 284 284 279 275 278 277 277 280 281 283 282 281 280 278 276
264 262 257 260 260 259 263 265 260 267 267 262 266 272 267 256 262 270 269 270 273 272 275 276 275 274 277 278 281 282 279 279 278 275 274 276 277 281 284 285 283 282 281 282 282
266 263 257 263 261 257 258 260 266 262 261 263 268 269 270 270 271 269 268 268 272 272 272 278 279 276 281 274 270 275 276 275 272 272 275 276 276 279 284 282 285 286 283 281 279
264 259 259 260 254 254 256 263 269 264 265 266 269 271 271 274 273 274 275 276 277 275 276 274 276 277 277 273 268 269 271 270 271 273 275 277 280 280 282 282 281 281 282 280 276
260 258 257 258 261 261 263 261 265 266 268 268 271 274 272 271 274 281 279 275 277 276 272 273 271 272 272 273 273 273 273 273 271 273 275 276 280 281 282 283 284 275 268 263 259
257 256 257 260 261 260 265 259 264 269 271 269 269 273 271 272 274 276 277 282 280 279 278 272 269 272 272 271 272 276 277 276 277 275 278 281 279 281 282 286 284 275 251 248 253
260 259 259 260 261 263 260 263 265 266 270 275 274 272 271 272 274 276 276 276 277 277 277 279 286 278 277 279 282 281 285 284 285 284 283 285 288 280 288 283 279 275 262 256 256
259 259 259 259 259 261 263 263 265 267 267 272 274 276 276 277 275 270 271 272 274 277 278 284 284 280 281 283 281 284 281 283 285 290 293 284 287 291 283 285 276 277 274 260 257
259 259 259 259 260 260 260 261 262 261 262 266 271 274 275 271 273 274 272 269 271 272 273 275 276 279 280 279 282 284 287 289 287 288 286 298 285 291 286 280 278 274 277 271 259
260 259 258 260 259 259 260 259 257 257 263 266 268 268 268 273 273 273 274 275 277 278 277 275 277 278 278 280 284 286 283 283 282 283 290 288 288 294 278 278 283 279 273 273 259
256 256 257 259 259 258 258 257 256 260 261 263 264 267 269 268 269 272 274 272 274 279 278 278 277 278 279 279 282 279 281 282 286 284 283 286 287 287 279 283 292 292 270 271 266
254 255 255 255 256 256 255 254 260 263 259 259 262 264 266 271 273 273 274 275 278 282 281 282 278 278 278 284 285 281 281 281 282 281 279 279 277 273 275 284 291 265 237 273 264
253 253 252 251 252 253 252 254 256 257 260 260 260 261 262 263 264 268 271 274 278 280 282 276 271 274 274 276 281 271 277 287 285 282 279 275 274 277 278 281 262 268 273 227 278
252 252 251 253 251 250 252 255 254 255 257 258 259 259 260 259 260 261 266 268 271 275 272 273 269 270 277 279 282 282 281 290 286 278 277 278 274 273 278 286 268 262 259 269 277
251 250 249 250 250 252 252 258 256 252 249 253 253 256 258 257 257 257 261 260 262 263 268 266 257 269 281 278 273 278 286 286 284 276 276 272 271 279 286 284 280 272 266 271 273
252 250 249 251 250 252 256 255 252 247 250 251 251 251 247 250 255 255 257 257 256 251 254 244 266 272 279 281 283 280 285 291 275 271 270 266 273 279 278 274 268 271 275 276 275
251 250 249 249 251 251 253 253 250 248 248 246 245 245 244 245 245 252 255 257 255 253 252 258 268 274 281 282 280 283 285 285 269 273 275 270 279 277 273 274 279 277 276 280 286
249 250 248 248 250 252 251 251 250 246 246 243 245 245 245 245 243 247 251 254 254 255 261 269 267 273 278 279 279 284 287 269 271 270 271 275 273 276 279 287 287 284 280 277 278
246 247 248 250 248 247 244 245 247 243 241 241 244 243 242 242 242 242 244 253 256 246 255 263 267 277 284 284 282 286 281 272 267 270 272 274 277 280 282 277 276 278 280 281 276
241 242 242 243 242 241 244 247 243 235 235 238 241 240 241 239 245 241 237 250 248 246 265 262 267 275 282 285 285 281 278 262 268 270 272 272 275 274 275 276 276 275 274 274 274